Volver al catálogo

CZ-6A DEB

ActivoSSO
NORAD 55888·DEBRIS·🇨🇳 China

Lanzado Nov 11, 2022 desde Taiyuan Satellite Launch Center

Loading…

Próximos Pases (próximas 24 horas)

TLE

ActualizadoSource: Space-Track

Época: Sep 14, 2026, 13:12 UTC

1 55888U 22151AAL 26257.55060141  .00004607  00000-0  85571-3 0  9995
2 55888  98.4472 287.7232 0127583  20.3566 340.2654 14.60537020197525

Sigue CZ-6A DEB en tiempo real con AllMySat

Download on the App Store